TimePST,TemperatureF,Dew PointF,Humidity,Sea Level PressureIn,VisibilityMPH,Wind Direction,Wind SpeedMPH,Gust SpeedMPH,PrecipitationIn,Events,Conditions,WindDirDegrees,DateUTC
12:47 AM,55.9,54.0,93,30.14,4.0,Calm,Calm,-,N/A,,Clear,0,2012-12-05 08:47:00
1:47 AM,55.0,53.1,93,30.14,5.0,Calm,Calm,-,N/A,,Clear,0,2012-12-05 09:47:00
2:47 AM,53.1,52.0,96,30.12,4.0,Calm,Calm,-,N/A,,Clear,0,2012-12-05 10:47:00
3:40 AM,53.6,51.8,94,30.11,4.0,Calm,Calm,-,N/A,,Partly Cloudy,0,2012-12-05 11:40:00
3:47 AM,52.0,51.1,97,30.12,3.0,Calm,Calm,-,N/A,,Scattered Clouds,0,2012-12-05 11:47:00
3:52 AM,51.8,51.8,100,30.11,2.5,Calm,Calm,-,N/A,,Mostly Cloudy,0,2012-12-05 11:52:00
3:57 AM,51.8,50.0,94,30.10,1.5,Calm,Calm,-,N/A,,Mostly Cloudy,0,2012-12-05 11:57:00
4:07 AM,51.8,51.8,100,30.11,0.5,Calm,Calm,-,N/A,Fog,Fog,0,2012-12-05 12:07:00
4:27 AM,51.8,50.0,94,30.11,1.0,Calm,Calm,-,N/A,,Mist,0,2012-12-05 12:27:00
4:47 AM,51.1,51.1,100,30.11,0.8,Calm,Calm,-,N/A,,Mist,0,2012-12-05 12:47:00
6:47 AM,50.0,50.0,100,30.12,0.2,Calm,Calm,-,N/A,Fog,Fog,0,2012-12-05 14:47:00
7:08 AM,51.8,50.0,94,30.11,1.2,Calm,Calm,-,N/A,,Scattered Clouds,0,2012-12-05 15:08:00
7:12 AM,51.8,50.0,94,30.12,2.5,Calm,Calm,-,N/A,,Scattered Clouds,0,2012-12-05 15:12:00
7:16 AM,51.8,50.0,94,30.12,3.0,Calm,Calm,-,N/A,,Partly Cloudy,0,2012-12-05 15:16:00
7:33 AM,51.8,50.0,94,30.13,2.5,Calm,Calm,-,N/A,,Clear,0,2012-12-05 15:33:00
7:38 AM,51.8,51.8,100,30.13,1.5,Calm,Calm,-,N/A,,Partly Cloudy,0,2012-12-05 15:38:00
7:47 AM,52.0,51.1,97,30.13,2.0,Calm,Calm,-,N/A,,Clear,0,2012-12-05 15:47:00
7:53 AM,53.6,51.8,94,30.13,3.0,Calm,Calm,-,N/A,,Clear,0,2012-12-05 15:53:00
8:47 AM,55.0,52.0,89,30.13,3.0,Calm,Calm,-,N/A,,Clear,0,2012-12-05 16:47:00
9:12 AM,55.4,53.6,94,30.14,2.5,Calm,Calm,-,N/A,,Clear,0,2012-12-05 17:12:00
9:15 AM,55.4,53.6,94,30.14,2.0,Calm,Calm,-,N/A,,Partly Cloudy,0,2012-12-05 17:15:00
9:19 AM,55.4,53.6,94,30.14,1.8,Calm,Calm,-,N/A,,Scattered Clouds,0,2012-12-05 17:19:00
9:24 AM,55.4,53.6,94,30.14,1.8,Calm,Calm,-,N/A,,Mostly Cloudy,0,2012-12-05 17:24:00
9:31 AM,55.4,53.6,94,30.14,1.5,Calm,Calm,-,N/A,,Mostly Cloudy,0,2012-12-05 17:31:00
9:47 AM,55.9,54.0,93,30.13,1.0,Calm,Calm,-,N/A,,Overcast,0,2012-12-05 17:47:00
9:55 AM,55.4,53.6,94,30.13,0.8,Calm,Calm,-,N/A,,Overcast,0,2012-12-05 17:55:00
10:03 AM,55.4,55.4,100,30.13,1.0,Calm,Calm,-,N/A,,Overcast,0,2012-12-05 18:03:00
10:34 AM,57.2,55.4,94,30.12,2.0,South,3.5,-,N/A,,Overcast,180,2012-12-05 18:34:00
10:40 AM,57.2,55.4,94,30.12,1.8,Calm,Calm,-,N/A,,Overcast,0,2012-12-05 18:40:00
10:47 AM,57.0,55.0,93,30.12,2.0,Calm,Calm,-,N/A,,Overcast,0,2012-12-05 18:47:00
11:26 AM,57.2,53.6,88,30.10,2.0,Variable,4.6,-,N/A,,Overcast,0,2012-12-05 19:26:00
11:47 AM,59.0,55.0,87,30.09,2.5,Calm,Calm,-,N/A,,Overcast,0,2012-12-05 19:47:00
12:47 PM,61.0,55.0,81,30.06,2.5,Calm,Calm,-,N/A,,Haze,0,2012-12-05 20:47:00
1:12 PM,62.6,55.4,77,30.05,2.5,Calm,Calm,-,N/A,,Haze,0,2012-12-05 21:12:00
1:34 PM,64.4,55.4,73,30.04,3.0,Calm,Calm,-,N/A,,Haze,0,2012-12-05 21:34:00
1:47 PM,64.0,55.9,75,30.04,2.5,Calm,Calm,-,N/A,,Haze,0,2012-12-05 21:47:00
2:47 PM,66.0,55.0,68,30.01,2.5,Calm,Calm,-,N/A,,Haze,0,2012-12-05 22:47:00
2:50 PM,66.2,55.4,68,30.01,3.0,Calm,Calm,-,N/A,,Haze,0,2012-12-05 22:50:00
3:47 PM,64.0,54.0,70,30.01,4.0,Calm,Calm,-,N/A,,Haze,0,2012-12-05 23:47:00
4:47 PM,61.0,55.0,81,30.01,5.0,Calm,Calm,-,N/A,,Haze,0,2012-12-06 00:47:00
5:47 PM,60.1,55.0,83,30.02,5.0,Calm,Calm,-,N/A,,Haze,0,2012-12-06 01:47:00
6:47 PM,59.0,55.9,90,30.03,5.0,Calm,Calm,-,N/A,,Clear,0,2012-12-06 02:47:00
7:47 PM,57.9,55.0,90,30.04,4.0,Calm,Calm,-,N/A,,Clear,0,2012-12-06 03:47:00
8:38 PM,57.2,55.4,94,30.03,4.0,Calm,Calm,-,N/A,,Mostly Cloudy,0,2012-12-06 04:38:00
8:43 PM,57.2,55.4,94,30.04,4.0,Calm,Calm,-,N/A,,Mostly Cloudy,0,2012-12-06 04:43:00
8:47 PM,57.0,55.0,93,30.04,4.0,Calm,Calm,-,N/A,,Mostly Cloudy,0,2012-12-06 04:47:00
9:47 PM,59.0,55.9,90,30.04,4.0,Calm,Calm,-,N/A,,Overcast,0,2012-12-06 05:47:00
10:47 PM,59.0,55.0,87,30.03,4.0,ESE,3.5,-,N/A,,Overcast,110,2012-12-06 06:47:00
11:47 PM,59.0,55.0,87,30.03,3.0,East,3.5,-,N/A,,Overcast,100,2012-12-06 07:47:00